Regional Weather Roundup
Issued by NWS Goodland, KS

Home | Current Version | Previous Version | Text Only | Print | Product List | Glossary Off
Versions: 1 2 3 4 5 6 7 8 9 10 11 12 13 14 15 16 17 18 19 20 21 22 23 24 25 26 27 28 29 30 31 32 33 34 35 36 37 38 39 40 41 42 43 44 45 46 47 48 49 50

944
ASUS43 KGLD 190059
RWRGLD

GOODLAND FORECAST AREA HOURLY WEATHER ROUNDUP
NATIONAL WEATHER SERVICE GOODLAND KS
600 PM MST SAT NOV 18 2017

...OFFICIAL OBSERVATIONS...

CITY           SKY/WX    TMP DP  RH WIND       PRES   REMARKS
GOODLAND KS    CLEAR     30  14  51 W3        30.24R
HILL CITY KS   CLEAR     38  22  52 NW9       30.24R
IMPERIAL NEB   CLEAR     35  15  44 NW8       30.23R
MCCOOK NEB     CLEAR     34  21  59 NW8       30.23R
AKRON CO       CLEAR     36  12  37 E3        30.22R
BURLINGTON CO  CLEAR     34  13  41 W3        30.25R
LIMON CO       CLEAR     20  14  77 CALM      30.24R
$$

...UNOFFICIAL OBSERVATIONS...

CITY           SKY/WX    TMP DP  RH WIND       PRES   REMARKS
LENORA KS        N/A     39  32  76 NW6         N/A
NORTON KS      CLEAR     36  18  48 W8        30.22
SHARON SPRINGS   N/A     33  15  46 NW7         N/A
TRENTON NEB      N/A     34  32  92 NW5         N/A
KIT CARSON CO    N/A     37  13  36 CALM        N/A
YUMA CO        FAIR      32  18  55 NW6       30.23R
$$




USA.gov is the U.S. government's official web portal to all federal, state and local government web resources and services.